Year,Month,Day,Hour,Minute,Value (Times are PST for temperature in C)
2012,08,18,00,00,20.80
2012,08,18,00,01,20.80
2012,08,18,00,02,20.80
2012,08,18,00,03,20.80
2012,08,18,00,04,20.80
2012,08,18,00,05,20.80
2012,08,18,00,06,20.80
2012,08,18,00,07,20.80
2012,08,18,00,08,20.70
2012,08,18,00,09,20.70
2012,08,18,00,10,20.70
2012,08,18,00,11,20.70
2012,08,18,00,12,20.70
2012,08,18,00,13,20.70
2012,08,18,00,14,20.70
2012,08,18,00,15,20.80
2012,08,18,00,16,20.90
2012,08,18,00,17,20.90
2012,08,18,00,18,21.00
2012,08,18,00,19,21.00
2012,08,18,00,20,21.00
2012,08,18,00,21,21.00
2012,08,18,00,22,20.90
2012,08,18,00,23,20.90
2012,08,18,00,24,20.90
2012,08,18,00,25,20.90
2012,08,18,00,26,20.80
2012,08,18,00,27,20.80
2012,08,18,00,28,20.80
2012,08,18,00,29,20.70
2012,08,18,00,30,20.70
2012,08,18,00,31,20.60
2012,08,18,00,32,20.60
2012,08,18,00,33,20.50
2012,08,18,00,34,20.40
2012,08,18,00,35,20.30
2012,08,18,00,36,20.20
2012,08,18,00,37,20.20
2012,08,18,00,38,20.10
2012,08,18,00,39,20.10
2012,08,18,00,40,20.00
2012,08,18,00,41,20.00
2012,08,18,00,42,20.00
2012,08,18,00,43,19.90
2012,08,18,00,44,19.90
2012,08,18,00,45,19.90
2012,08,18,00,46,19.90
2012,08,18,00,47,19.80
2012,08,18,00,48,19.80
2012,08,18,00,49,19.80
2012,08,18,00,50,19.80
2012,08,18,00,51,19.80
2012,08,18,00,52,19.80
2012,08,18,00,53,19.70
2012,08,18,00,54,19.70
2012,08,18,00,55,19.70
2012,08,18,00,56,19.70
2012,08,18,00,57,19.70
2012,08,18,00,58,19.70
2012,08,18,00,59,19.70
2012,08,18,01,00,19.70
2012,08,18,01,01,19.70
2012,08,18,01,02,19.80
2012,08,18,01,03,19.80
2012,08,18,01,04,19.80
2012,08,18,01,05,19.80
2012,08,18,01,06,19.80
2012,08,18,01,07,19.80
2012,08,18,01,08,19.70
2012,08,18,01,09,19.70
2012,08,18,01,10,19.70
2012,08,18,01,11,19.60
2012,08,18,01,12,19.60
2012,08,18,01,13,19.50
2012,08,18,01,14,19.40
2012,08,18,01,15,19.40
2012,08,18,01,16,19.30
2012,08,18,01,17,19.20
2012,08,18,01,18,19.20
2012,08,18,01,19,19.10
2012,08,18,01,20,19.00
2012,08,18,01,21,19.00
2012,08,18,01,22,18.90
2012,08,18,01,23,18.80
2012,08,18,01,24,18.80
2012,08,18,01,25,18.70
2012,08,18,01,26,18.60
2012,08,18,01,27,18.50
2012,08,18,01,28,18.50
2012,08,18,01,29,18.40
2012,08,18,01,30,18.40
2012,08,18,01,31,18.30
2012,08,18,01,32,18.30
2012,08,18,01,33,18.20
2012,08,18,01,34,18.20
2012,08,18,01,35,18.10
2012,08,18,01,36,18.10
2012,08,18,01,37,18.10
2012,08,18,01,38,18.00
2012,08,18,01,39,18.00
2012,08,18,01,40,17.90
2012,08,18,01,41,17.90
2012,08,18,01,42,17.90
2012,08,18,01,43,17.90
2012,08,18,01,44,17.90
2012,08,18,01,45,17.90
2012,08,18,01,46,18.00
2012,08,18,01,47,18.00
2012,08,18,01,48,18.00
2012,08,18,01,49,18.00
2012,08,18,01,50,18.10
2012,08,18,01,51,18.10
2012,08,18,01,52,18.10
2012,08,18,01,53,18.10
2012,08,18,01,54,18.10
2012,08,18,01,55,18.10
2012,08,18,01,56,18.10
2012,08,18,01,57,18.10
2012,08,18,01,58,18.10
2012,08,18,01,59,18.20
2012,08,18,02,00,18.20
2012,08,18,02,01,18.20
2012,08,18,02,02,18.20
2012,08,18,02,03,18.20
2012,08,18,02,04,18.10
2012,08,18,02,05,18.10
2012,08,18,02,06,18.10
2012,08,18,02,07,18.10
2012,08,18,02,08,18.10
2012,08,18,02,09,18.10
2012,08,18,02,10,18.10
2012,08,18,02,11,18.10
2012,08,18,02,12,18.10
2012,08,18,02,13,18.10
2012,08,18,02,14,18.10
2012,08,18,02,15,18.10
2012,08,18,02,16,18.10
2012,08,18,02,17,18.10
2012,08,18,02,18,18.00
2012,08,18,02,19,18.00
2012,08,18,02,20,18.00
2012,08,18,02,21,18.00
2012,08,18,02,22,17.90
2012,08,18,02,23,17.90
2012,08,18,02,24,17.90
2012,08,18,02,25,17.90
2012,08,18,02,26,17.80
2012,08,18,02,27,17.80
2012,08,18,02,28,17.80
2012,08,18,02,29,17.80
2012,08,18,02,30,17.80
2012,08,18,02,31,17.80
2012,08,18,02,32,17.80
2012,08,18,02,33,17.80
2012,08,18,02,34,17.80
2012,08,18,02,35,17.70
2012,08,18,02,36,17.70
2012,08,18,02,37,17.70
2012,08,18,02,38,17.70
2012,08,18,02,39,17.70
2012,08,18,02,40,17.70
2012,08,18,02,41,17.70
2012,08,18,02,42,17.70
2012,08,18,02,43,17.80
2012,08,18,02,44,17.80
2012,08,18,02,45,17.80
2012,08,18,02,46,17.80
2012,08,18,02,47,17.90
2012,08,18,02,48,17.90
2012,08,18,02,49,17.90
2012,08,18,02,50,18.00
2012,08,18,02,51,18.00
2012,08,18,02,52,18.10
2012,08,18,02,53,18.10
2012,08,18,02,54,18.10
2012,08,18,02,55,18.20
2012,08,18,02,56,18.20
2012,08,18,02,57,18.20
2012,08,18,02,58,18.20
2012,08,18,02,59,18.20
2012,08,18,03,00,18.20
2012,08,18,03,01,18.20
2012,08,18,03,02,18.20
2012,08,18,03,03,18.20
2012,08,18,03,04,18.20
2012,08,18,03,05,18.20
2012,08,18,03,06,18.20
2012,08,18,03,07,18.20
2012,08,18,03,08,18.20
2012,08,18,03,09,18.20
2012,08,18,03,10,18.20
2012,08,18,03,11,18.20
2012,08,18,03,12,18.10
2012,08,18,03,13,18.10
2012,08,18,03,14,18.00
2012,08,18,03,15,18.00
2012,08,18,03,16,17.90
2012,08,18,03,17,17.90
2012,08,18,03,18,17.90
2012,08,18,03,19,17.80
2012,08,18,03,20,17.80
2012,08,18,03,21,17.70
2012,08,18,03,22,17.70
2012,08,18,03,23,17.70
2012,08,18,03,24,17.60
2012,08,18,03,25,17.60
2012,08,18,03,26,17.50
2012,08,18,03,27,17.50
2012,08,18,03,28,17.40
2012,08,18,03,29,17.40
2012,08,18,03,30,17.40
2012,08,18,03,31,17.40
2012,08,18,03,32,17.30
2012,08,18,03,33,17.30
2012,08,18,03,34,17.30
2012,08,18,03,35,17.30
2012,08,18,03,36,17.30
2012,08,18,03,37,17.20
2012,08,18,03,38,17.20
2012,08,18,03,39,17.20
2012,08,18,03,40,17.20
2012,08,18,03,41,17.20
2012,08,18,03,42,17.10
2012,08,18,03,43,17.10
2012,08,18,03,44,17.10
2012,08,18,03,45,17.00
2012,08,18,03,46,16.90
2012,08,18,03,47,16.90
2012,08,18,03,48,16.80
2012,08,18,03,49,16.80
2012,08,18,03,50,16.80
2012,08,18,03,51,16.90
2012,08,18,03,52,17.00
2012,08,18,03,53,17.00
2012,08,18,03,54,17.00
2012,08,18,03,55,17.00
2012,08,18,03,56,16.90
2012,08,18,03,57,16.90
2012,08,18,03,58,16.80
2012,08,18,03,59,16.80
2012,08,18,04,00,16.70
2012,08,18,04,01,16.70
2012,08,18,04,02,16.60
2012,08,18,04,03,16.60
2012,08,18,04,04,16.50
2012,08,18,04,05,16.50
2012,08,18,04,06,16.40
2012,08,18,04,07,16.40
2012,08,18,04,08,16.30
2012,08,18,04,09,16.30
2012,08,18,04,10,16.30
2012,08,18,04,11,16.20
2012,08,18,04,12,16.20
2012,08,18,04,13,16.20
2012,08,18,04,14,16.10
2012,08,18,04,15,16.10
2012,08,18,04,16,16.10
2012,08,18,04,17,16.00
2012,08,18,04,18,16.00
2012,08,18,04,19,16.00
2012,08,18,04,20,15.90
2012,08,18,04,21,15.90
2012,08,18,04,22,15.90
2012,08,18,04,23,15.90
2012,08,18,04,24,15.90
2012,08,18,04,25,15.90
2012,08,18,04,26,15.90
2012,08,18,04,27,15.80
2012,08,18,04,28,15.80
2012,08,18,04,29,15.80
2012,08,18,04,30,15.90
2012,08,18,04,31,15.90
2012,08,18,04,32,15.90
2012,08,18,04,33,15.90
2012,08,18,04,34,15.90
2012,08,18,04,35,15.90
2012,08,18,04,36,16.00
2012,08,18,04,37,16.00
2012,08,18,04,38,16.10
2012,08,18,04,39,16.10
2012,08,18,04,40,16.20
2012,08,18,04,41,16.30
2012,08,18,04,42,16.30
2012,08,18,04,43,16.40
2012,08,18,04,44,16.50
2012,08,18,04,45,16.60
2012,08,18,04,46,16.60
2012,08,18,04,47,16.70
2012,08,18,04,48,16.80
2012,08,18,04,49,16.80
2012,08,18,04,50,16.90
2012,08,18,04,51,16.90
2012,08,18,04,52,17.00
2012,08,18,04,53,17.10
2012,08,18,04,54,17.10
2012,08,18,04,55,17.20
2012,08,18,04,56,17.20
2012,08,18,04,57,17.30
2012,08,18,04,58,17.30
2012,08,18,04,59,17.30
2012,08,18,05,00,17.40
2012,08,18,05,01,17.40
2012,08,18,05,02,17.40
2012,08,18,05,03,17.40
2012,08,18,05,04,17.40
2012,08,18,05,05,17.40
2012,08,18,05,06,17.40
2012,08,18,05,07,17.50
2012,08,18,05,08,17.50
2012,08,18,05,09,17.50
2012,08,18,05,10,17.50
2012,08,18,05,11,17.50
2012,08,18,05,12,17.50
2012,08,18,05,13,17.50
2012,08,18,05,14,17.50
2012,08,18,05,15,17.50
2012,08,18,05,16,17.50
2012,08,18,05,17,17.50
2012,08,18,05,18,17.50
2012,08,18,05,19,17.50
2012,08,18,05,20,17.60
2012,08,18,05,21,17.50
2012,08,18,05,22,17.50
2012,08,18,05,23,17.50
2012,08,18,05,24,17.50
2012,08,18,05,25,17.40
2012,08,18,05,26,17.40
2012,08,18,05,27,17.40
2012,08,18,05,28,17.40
2012,08,18,05,29,17.30
2012,08,18,05,30,17.30
2012,08,18,05,31,17.30
2012,08,18,05,32,17.30
2012,08,18,05,33,17.30
2012,08,18,05,34,17.30
2012,08,18,05,35,17.30
2012,08,18,05,36,17.30
2012,08,18,05,37,17.30
2012,08,18,05,38,17.30
2012,08,18,05,39,17.30
2012,08,18,05,40,17.30
2012,08,18,05,41,17.20
2012,08,18,05,42,17.20
2012,08,18,05,43,17.20
2012,08,18,05,44,17.20
2012,08,18,05,45,17.20
2012,08,18,05,46,17.20
2012,08,18,05,47,17.20
2012,08,18,05,48,17.10
2012,08,18,05,49,17.10
2012,08,18,05,50,17.10
2012,08,18,05,51,17.10
2012,08,18,05,52,17.00
2012,08,18,05,53,17.00
2012,08,18,05,54,17.00
2012,08,18,05,55,16.90
2012,08,18,05,56,16.90
2012,08,18,05,57,16.90
2012,08,18,05,58,16.90
2012,08,18,05,59,16.90
2012,08,18,06,00,16.80
2012,08,18,06,01,16.80
2012,08,18,06,02,16.80
2012,08,18,06,03,16.70
2012,08,18,06,04,16.70
2012,08,18,06,05,16.70
2012,08,18,06,06,16.60
2012,08,18,06,07,16.60
2012,08,18,06,08,16.50
2012,08,18,06,09,16.50
2012,08,18,06,10,16.40
2012,08,18,06,11,16.40
2012,08,18,06,12,16.30
2012,08,18,06,13,16.30
2012,08,18,06,14,16.20
2012,08,18,06,15,16.20
2012,08,18,06,16,16.10
2012,08,18,06,17,16.10
2012,08,18,06,18,16.00
2012,08,18,06,19,16.00
2012,08,18,06,20,15.90
2012,08,18,06,21,15.90
2012,08,18,06,22,15.90
2012,08,18,06,23,15.80
2012,08,18,06,24,15.80
2012,08,18,06,25,15.80
2012,08,18,06,26,15.70
2012,08,18,06,27,15.70
2012,08,18,06,28,15.70
2012,08,18,06,29,15.70
2012,08,18,06,30,15.60
2012,08,18,06,31,15.60
2012,08,18,06,32,15.60
2012,08,18,06,33,15.60
2012,08,18,06,34,15.60
2012,08,18,06,35,15.50
2012,08,18,06,36,15.50
2012,08,18,06,37,15.40
2012,08,18,06,38,15.40
2012,08,18,06,39,15.40
2012,08,18,06,40,15.40
2012,08,18,06,41,15.30
2012,08,18,06,42,15.30
2012,08,18,06,43,15.30
2012,08,18,06,44,15.30
2012,08,18,06,45,15.30
2012,08,18,06,46,15.30
2012,08,18,06,47,15.30
2012,08,18,06,48,15.30
2012,08,18,06,49,15.30
2012,08,18,06,50,15.40
2012,08,18,06,51,15.40
2012,08,18,06,52,15.40
2012,08,18,06,53,15.40
2012,08,18,06,54,15.40
2012,08,18,06,55,15.40
2012,08,18,06,56,15.50
2012,08,18,06,57,15.50
2012,08,18,06,58,15.50
2012,08,18,06,59,15.60
2012,08,18,07,00,15.60
2012,08,18,07,01,15.60
2012,08,18,07,02,15.60
2012,08,18,07,03,15.70
2012,08,18,07,04,15.70
2012,08,18,07,05,15.70
2012,08,18,07,06,15.70
2012,08,18,07,07,15.70
2012,08,18,07,08,15.70
2012,08,18,07,09,15.70
2012,08,18,07,10,15.70
2012,08,18,07,11,15.70
2012,08,18,07,12,15.70
2012,08,18,07,13,15.70
2012,08,18,07,14,15.70
2012,08,18,07,15,15.80
2012,08,18,07,16,15.80
2012,08,18,07,17,15.80
2012,08,18,07,18,15.90
2012,08,18,07,19,15.90
2012,08,18,07,20,15.90
2012,08,18,07,21,16.00
2012,08,18,07,22,16.10
2012,08,18,07,23,16.20
2012,08,18,07,24,16.20
2012,08,18,07,25,16.30
2012,08,18,07,26,16.30
2012,08,18,07,27,16.30
2012,08,18,07,28,16.40
2012,08,18,07,29,16.50
2012,08,18,07,30,16.50
2012,08,18,07,31,16.50
2012,08,18,07,32,16.60
2012,08,18,07,33,16.60
2012,08,18,07,34,16.70
2012,08,18,07,35,16.70
2012,08,18,07,36,16.70
2012,08,18,07,37,16.80
2012,08,18,07,38,16.80
2012,08,18,07,39,16.80
2012,08,18,07,40,16.90
2012,08,18,07,41,16.90
2012,08,18,07,42,17.00
2012,08,18,07,43,17.00
2012,08,18,07,44,17.00
2012,08,18,07,45,17.10
2012,08,18,07,46,17.10
2012,08,18,07,47,17.10
2012,08,18,07,48,17.20
2012,08,18,07,49,17.20
2012,08,18,07,50,17.20
2012,08,18,07,51,17.30
2012,08,18,07,52,17.30
2012,08,18,07,53,17.30
2012,08,18,07,54,17.30
2012,08,18,07,55,17.40
2012,08,18,07,56,17.40
2012,08,18,07,57,17.40
2012,08,18,07,58,17.40
2012,08,18,07,59,17.50
2012,08,18,08,00,17.50
2012,08,18,08,01,17.60
2012,08,18,08,02,17.60
2012,08,18,08,03,17.60
2012,08,18,08,04,17.70
2012,08,18,08,05,17.70
2012,08,18,08,06,17.70
2012,08,18,08,07,17.80
2012,08,18,08,08,17.80
2012,08,18,08,09,17.80
2012,08,18,08,10,17.90
2012,08,18,08,11,17.90
2012,08,18,08,12,18.00
2012,08,18,08,13,18.10
2012,08,18,08,14,18.10
2012,08,18,08,15,18.20
2012,08,18,08,16,18.20
2012,08,18,08,17,18.30
2012,08,18,08,18,18.40
2012,08,18,08,19,18.50
2012,08,18,08,20,18.50
2012,08,18,08,21,18.60
2012,08,18,08,22,18.70
2012,08,18,08,23,18.80
2012,08,18,08,24,18.80
2012,08,18,08,25,18.90
2012,08,18,08,26,19.00
2012,08,18,08,27,19.00
2012,08,18,08,28,19.10
2012,08,18,08,29,19.10
2012,08,18,08,30,19.20
2012,08,18,08,31,19.20
2012,08,18,08,32,19.30
2012,08,18,08,33,19.30
2012,08,18,08,34,19.40
2012,08,18,08,35,19.40
2012,08,18,08,36,19.50
2012,08,18,08,37,19.60
2012,08,18,08,38,19.70
2012,08,18,08,39,19.80
2012,08,18,08,40,19.90
2012,08,18,08,41,19.90
2012,08,18,08,42,20.00
2012,08,18,08,43,20.10
2012,08,18,08,44,20.20
2012,08,18,08,45,20.20
2012,08,18,08,46,20.30
2012,08,18,08,47,20.40
2012,08,18,08,48,20.40
2012,08,18,08,49,20.50
2012,08,18,08,50,20.50
2012,08,18,08,51,20.60
2012,08,18,08,52,20.70
2012,08,18,08,53,20.70
2012,08,18,08,54,20.80
2012,08,18,08,55,20.90
2012,08,18,08,56,20.90
2012,08,18,08,57,21.00
2012,08,18,08,58,21.10
2012,08,18,08,59,21.10
2012,08,18,09,00,21.10
2012,08,18,09,01,21.20
2012,08,18,09,02,21.20
2012,08,18,09,03,21.20
2012,08,18,09,04,21.20
2012,08,18,09,05,21.20
2012,08,18,09,06,21.20
2012,08,18,09,07,21.20
2012,08,18,09,08,21.20
2012,08,18,09,09,21.20
2012,08,18,09,10,21.20
2012,08,18,09,11,21.20
2012,08,18,09,12,21.10
2012,08,18,09,13,21.10
2012,08,18,09,14,21.10
2012,08,18,09,15,21.10
2012,08,18,09,16,21.00
2012,08,18,09,17,20.90
2012,08,18,09,18,20.80
2012,08,18,09,19,20.70
2012,08,18,09,20,20.70
2012,08,18,09,21,20.60
2012,08,18,09,22,20.50
2012,08,18,09,23,20.50
2012,08,18,09,24,20.30
2012,08,18,09,25,20.20
2012,08,18,09,26,20.20
2012,08,18,09,27,20.10
2012,08,18,09,28,20.10
2012,08,18,09,29,20.00
2012,08,18,09,30,20.00
2012,08,18,09,31,20.00
2012,08,18,09,32,20.10
2012,08,18,09,33,20.20
2012,08,18,09,34,20.30
2012,08,18,09,35,20.40
2012,08,18,09,36,20.50
2012,08,18,09,37,20.70
2012,08,18,09,38,20.80
2012,08,18,09,39,20.90
2012,08,18,09,40,21.00
2012,08,18,09,41,21.00
2012,08,18,09,42,21.10
2012,08,18,09,43,21.20
2012,08,18,09,44,21.20
2012,08,18,09,45,21.30
2012,08,18,09,46,21.40
2012,08,18,09,47,21.50
2012,08,18,09,48,21.60
2012,08,18,09,49,21.60
2012,08,18,09,50,21.70
2012,08,18,09,51,21.80
2012,08,18,09,52,21.80
2012,08,18,09,53,21.80
2012,08,18,09,54,21.80
2012,08,18,09,55,21.90
2012,08,18,09,56,22.00
2012,08,18,09,57,22.10
2012,08,18,09,58,22.20
2012,08,18,09,59,22.20
2012,08,18,10,00,22.30
2012,08,18,10,01,22.30
2012,08,18,10,02,22.30
2012,08,18,10,03,22.40
2012,08,18,10,04,22.40
2012,08,18,10,05,22.40
2012,08,18,10,06,22.40
2012,08,18,10,07,22.40
2012,08,18,10,08,22.40
2012,08,18,10,09,22.50
2012,08,18,10,10,22.50
2012,08,18,10,11,22.60
2012,08,18,10,12,22.60
2012,08,18,10,13,22.60
2012,08,18,10,14,22.50
2012,08,18,10,15,22.40
2012,08,18,10,16,22.30
2012,08,18,10,17,22.30
2012,08,18,10,18,22.30
2012,08,18,10,19,22.20
2012,08,18,10,20,22.20
2012,08,18,10,21,22.20
2012,08,18,10,22,22.20
2012,08,18,10,23,22.20
2012,08,18,10,24,22.20
2012,08,18,10,25,22.20
2012,08,18,10,26,22.20
2012,08,18,10,27,22.20
2012,08,18,10,28,22.10
2012,08,18,10,29,22.10
2012,08,18,10,30,22.00
2012,08,18,10,31,21.90
2012,08,18,10,32,21.90
2012,08,18,10,33,21.80
2012,08,18,10,34,21.80
2012,08,18,10,35,21.80
2012,08,18,10,36,21.60
2012,08,18,10,37,21.30
2012,08,18,10,38,20.90
2012,08,18,10,39,20.70
2012,08,18,10,40,20.50
2012,08,18,10,41,20.20
2012,08,18,10,42,20.00
2012,08,18,10,43,19.80
2012,08,18,10,44,19.70
2012,08,18,10,45,19.60
2012,08,18,10,46,19.50
2012,08,18,10,47,19.30
2012,08,18,10,48,19.30
2012,08,18,10,49,19.20
2012,08,18,10,50,19.20
2012,08,18,10,51,19.30
2012,08,18,10,52,19.30
2012,08,18,10,53,19.40
2012,08,18,10,54,19.50
2012,08,18,10,55,19.70
2012,08,18,10,56,19.80
2012,08,18,10,57,19.90
2012,08,18,10,58,20.00
2012,08,18,10,59,20.00
2012,08,18,11,00,19.90
2012,08,18,11,01,19.80
2012,08,18,11,02,19.80
2012,08,18,11,03,19.70
2012,08,18,11,04,19.50
2012,08,18,11,05,19.40
2012,08,18,11,06,19.30
2012,08,18,11,07,19.30
2012,08,18,11,08,19.30
2012,08,18,11,09,19.30
2012,08,18,11,10,19.40
2012,08,18,11,11,19.50
2012,08,18,11,12,19.70
2012,08,18,11,13,19.80
2012,08,18,11,14,20.00
2012,08,18,11,15,20.20
2012,08,18,11,16,20.40
2012,08,18,11,17,20.60
2012,08,18,11,18,20.80
2012,08,18,11,19,21.00
2012,08,18,11,20,21.30
2012,08,18,11,21,21.40
2012,08,18,11,22,21.50
2012,08,18,11,23,21.70
2012,08,18,11,24,21.90
2012,08,18,11,25,22.00
2012,08,18,11,26,22.20
2012,08,18,11,27,22.30
2012,08,18,11,28,22.40
2012,08,18,11,29,22.50
2012,08,18,11,30,22.50
2012,08,18,11,31,22.60
2012,08,18,11,32,22.70
2012,08,18,11,33,22.80
2012,08,18,11,34,22.90
2012,08,18,11,35,22.90
2012,08,18,11,36,22.90
2012,08,18,11,37,22.90
2012,08,18,11,38,22.80
2012,08,18,11,39,22.60
2012,08,18,11,40,22.40
2012,08,18,11,41,22.30
2012,08,18,11,42,22.10
2012,08,18,11,43,22.00
2012,08,18,11,44,22.00
2012,08,18,11,45,21.90
2012,08,18,11,46,21.80
2012,08,18,11,47,21.60
2012,08,18,11,48,21.40
2012,08,18,11,49,21.10
2012,08,18,11,50,20.90
2012,08,18,11,51,20.80
2012,08,18,11,52,20.80
2012,08,18,11,53,20.70
2012,08,18,11,54,20.80
2012,08,18,11,55,20.70
2012,08,18,11,56,20.70
2012,08,18,11,57,20.70
2012,08,18,11,58,20.70
2012,08,18,11,59,20.70
2012,08,18,12,00,20.70
2012,08,18,12,01,20.80
2012,08,18,12,02,20.80
2012,08,18,12,03,20.90
2012,08,18,12,04,20.90
2012,08,18,12,05,20.90
2012,08,18,12,06,20.90
2012,08,18,12,07,20.90
2012,08,18,12,08,20.80
2012,08,18,12,09,20.80
2012,08,18,12,10,20.70
2012,08,18,12,11,20.70
2012,08,18,12,12,20.70
2012,08,18,12,13,20.70
2012,08,18,12,14,20.60
2012,08,18,12,15,20.60
2012,08,18,12,16,20.50
2012,08,18,12,17,20.40
2012,08,18,12,18,20.40
2012,08,18,12,19,20.40
2012,08,18,12,20,20.40
2012,08,18,12,21,20.40
2012,08,18,12,22,20.40
2012,08,18,12,23,20.40
2012,08,18,12,24,20.50
2012,08,18,12,25,20.60
2012,08,18,12,26,20.60
2012,08,18,12,27,20.70
2012,08,18,12,28,20.70
2012,08,18,12,29,20.70
2012,08,18,12,30,20.70
2012,08,18,12,31,20.70
2012,08,18,12,32,20.70
2012,08,18,12,33,20.60
2012,08,18,12,34,20.60
2012,08,18,12,35,20.60
2012,08,18,12,36,20.70
2012,08,18,12,37,20.70
2012,08,18,12,38,20.70
2012,08,18,12,39,20.70
2012,08,18,12,40,20.70
2012,08,18,12,41,20.70
2012,08,18,12,42,20.70
2012,08,18,12,43,20.70
2012,08,18,12,44,20.60
2012,08,18,12,45,20.60
2012,08,18,12,46,20.70
2012,08,18,12,47,20.60
2012,08,18,12,48,20.60
2012,08,18,12,49,20.60
2012,08,18,12,50,20.60
2012,08,18,12,51,20.60
2012,08,18,12,52,20.70
2012,08,18,12,53,20.70
2012,08,18,12,54,20.70
2012,08,18,12,55,20.80
2012,08,18,12,56,20.80
2012,08,18,12,57,20.80
2012,08,18,12,58,20.80
2012,08,18,12,59,20.80
2012,08,18,13,00,20.70
2012,08,18,13,01,20.70
2012,08,18,13,02,20.70
2012,08,18,13,03,20.70
2012,08,18,13,04,20.70
2012,08,18,13,05,20.70
2012,08,18,13,06,20.70
2012,08,18,13,07,20.80
2012,08,18,13,08,20.80
2012,08,18,13,09,20.70
2012,08,18,13,10,20.60
2012,08,18,13,11,20.50
2012,08,18,13,12,20.50
2012,08,18,13,13,20.40
2012,08,18,13,14,20.40
2012,08,18,13,15,20.30
2012,08,18,13,16,20.20
2012,08,18,13,17,20.20
2012,08,18,13,18,20.20
2012,08,18,13,19,20.20
2012,08,18,13,20,20.20
2012,08,18,13,21,20.10
2012,08,18,13,22,20.10
2012,08,18,13,23,20.00
2012,08,18,13,24,20.00
2012,08,18,13,25,19.90
2012,08,18,13,26,19.80
2012,08,18,13,27,19.80
2012,08,18,13,28,19.90
2012,08,18,13,29,19.90
2012,08,18,13,30,19.80
2012,08,18,13,31,19.80
2012,08,18,13,32,19.80
2012,08,18,13,33,19.80
2012,08,18,13,34,19.80
2012,08,18,13,35,19.80
2012,08,18,13,36,19.70
2012,08,18,13,37,19.70
2012,08,18,13,38,19.60
2012,08,18,13,39,19.60
2012,08,18,13,40,19.60
2012,08,18,13,41,19.60
2012,08,18,13,42,19.60
2012,08,18,13,43,19.60
2012,08,18,13,44,19.60
2012,08,18,13,45,19.60
2012,08,18,13,46,19.60
2012,08,18,13,47,19.60
2012,08,18,13,48,19.60
2012,08,18,13,49,19.60
2012,08,18,13,50,19.60
2012,08,18,13,51,19.50
2012,08,18,13,52,19.50
2012,08,18,13,53,19.40
2012,08,18,13,54,19.50
2012,08,18,13,55,19.50
2012,08,18,13,56,19.60
2012,08,18,13,57,19.60
2012,08,18,13,58,19.70
2012,08,18,13,59,19.80
2012,08,18,14,00,19.80
2012,08,18,14,01,19.90
2012,08,18,14,02,20.00
2012,08,18,14,03,20.10
2012,08,18,14,04,20.20
2012,08,18,14,05,20.40
2012,08,18,14,06,20.50
2012,08,18,14,07,20.60
2012,08,18,14,08,20.70
2012,08,18,14,09,20.80
2012,08,18,14,10,20.70
2012,08,18,14,11,20.60
2012,08,18,14,12,20.40
2012,08,18,14,13,20.30
2012,08,18,14,14,20.10
2012,08,18,14,15,20.00
2012,08,18,14,16,20.00
2012,08,18,14,17,19.90
2012,08,18,14,18,19.90
2012,08,18,14,19,19.90
2012,08,18,14,20,20.00
2012,08,18,14,21,20.00
2012,08,18,14,22,19.90
2012,08,18,14,23,19.80
2012,08,18,14,24,19.80
2012,08,18,14,25,19.80
2012,08,18,14,26,19.80
2012,08,18,14,27,19.70
2012,08,18,14,28,19.70
2012,08,18,14,29,19.70
2012,08,18,14,30,19.70
2012,08,18,14,31,19.60
2012,08,18,14,32,19.60
2012,08,18,14,33,19.50
2012,08,18,14,34,19.40
2012,08,18,14,35,19.40
2012,08,18,14,36,19.30
2012,08,18,14,37,19.20
2012,08,18,14,38,19.20
2012,08,18,14,39,19.20
2012,08,18,14,40,19.20
2012,08,18,14,41,19.20
2012,08,18,14,42,19.20
2012,08,18,14,43,19.30
2012,08,18,14,44,19.30
2012,08,18,14,45,19.30
2012,08,18,14,46,19.30
2012,08,18,14,47,19.30
2012,08,18,14,48,19.30
2012,08,18,14,49,19.30
2012,08,18,14,50,19.30
2012,08,18,14,51,19.30
2012,08,18,14,52,19.30
2012,08,18,14,53,19.30
2012,08,18,14,54,19.30
2012,08,18,14,55,19.30
2012,08,18,14,56,19.30
2012,08,18,14,57,19.40
2012,08,18,14,58,19.40
2012,08,18,14,59,19.50
2012,08,18,15,00,19.60
2012,08,18,15,01,19.60
2012,08,18,15,02,19.70
2012,08,18,15,03,19.80
2012,08,18,15,04,19.90
2012,08,18,15,05,20.00
2012,08,18,15,06,20.10
2012,08,18,15,07,20.20
2012,08,18,15,08,20.30
2012,08,18,15,09,20.40
2012,08,18,15,10,20.50
2012,08,18,15,11,20.50
2012,08,18,15,12,20.60
2012,08,18,15,13,20.70
2012,08,18,15,14,20.80
2012,08,18,15,15,20.80
2012,08,18,15,16,20.90
2012,08,18,15,17,20.90
2012,08,18,15,18,20.90
2012,08,18,15,19,20.80
2012,08,18,15,20,20.60
2012,08,18,15,21,20.50
2012,08,18,15,22,20.40
2012,08,18,15,23,20.30
2012,08,18,15,24,20.20
2012,08,18,15,25,20.10
2012,08,18,15,26,20.10
2012,08,18,15,27,20.00
2012,08,18,15,28,20.00
2012,08,18,15,29,19.90
2012,08,18,15,30,19.80
2012,08,18,15,31,19.80
2012,08,18,15,32,19.70
2012,08,18,15,33,19.60
2012,08,18,15,34,19.60
2012,08,18,15,35,19.50
2012,08,18,15,36,19.50
2012,08,18,15,37,19.40
2012,08,18,15,38,19.40
2012,08,18,15,39,19.40
2012,08,18,15,40,19.40
2012,08,18,15,41,19.40
2012,08,18,15,42,19.50
2012,08,18,15,43,19.50
2012,08,18,15,44,19.50
2012,08,18,15,45,19.50
2012,08,18,15,46,19.30
2012,08,18,15,47,19.20
2012,08,18,15,48,19.10
2012,08,18,15,49,19.00
2012,08,18,15,50,18.90
2012,08,18,15,51,18.90
2012,08,18,15,52,18.80
2012,08,18,15,53,18.70
2012,08,18,15,54,18.70
2012,08,18,15,55,18.70
2012,08,18,15,56,18.70
2012,08,18,15,57,18.70
2012,08,18,15,58,18.60
2012,08,18,15,59,18.50
2012,08,18,16,00,18.40
2012,08,18,16,01,18.30
2012,08,18,16,02,18.20
2012,08,18,16,03,18.10
2012,08,18,16,04,18.00
2012,08,18,16,05,17.90
2012,08,18,16,06,17.90
2012,08,18,16,07,17.80
2012,08,18,16,08,17.80
2012,08,18,16,09,17.80
2012,08,18,16,10,17.80
2012,08,18,16,11,17.80
2012,08,18,16,12,17.80
2012,08,18,16,13,17.90
2012,08,18,16,14,17.90
2012,08,18,16,15,18.00
2012,08,18,16,16,18.10
2012,08,18,16,17,18.20
2012,08,18,16,18,18.20
2012,08,18,16,19,18.30
2012,08,18,16,20,18.40
2012,08,18,16,21,18.50
2012,08,18,16,22,18.50
2012,08,18,16,23,18.60
2012,08,18,16,24,18.60
2012,08,18,16,25,18.60
2012,08,18,16,26,18.60
2012,08,18,16,27,18.60
2012,08,18,16,28,18.50
2012,08,18,16,29,18.40
2012,08,18,16,30,18.40
2012,08,18,16,31,18.40
2012,08,18,16,32,18.40
2012,08,18,16,33,18.40
2012,08,18,16,34,18.40
2012,08,18,16,35,18.50
2012,08,18,16,36,18.50
2012,08,18,16,37,18.60
2012,08,18,16,38,18.60
2012,08,18,16,39,18.60
2012,08,18,16,40,18.70
2012,08,18,16,41,18.70
2012,08,18,16,42,18.80
2012,08,18,16,43,18.80
2012,08,18,16,44,18.80
2012,08,18,16,45,18.80
2012,08,18,16,46,18.80
2012,08,18,16,47,18.80
2012,08,18,16,48,18.80
2012,08,18,16,49,18.80
2012,08,18,16,50,18.90
2012,08,18,16,51,18.90
2012,08,18,16,52,18.90
2012,08,18,16,53,18.90
2012,08,18,16,54,19.00
2012,08,18,16,55,19.00
2012,08,18,16,56,19.10
2012,08,18,16,57,19.10
2012,08,18,16,58,19.10
2012,08,18,16,59,19.20
2012,08,18,17,00,19.20
2012,08,18,17,01,19.20
2012,08,18,17,02,19.20
2012,08,18,17,03,19.20
2012,08,18,17,04,19.20
2012,08,18,17,05,19.20
2012,08,18,17,06,19.30
2012,08,18,17,07,19.30
2012,08,18,17,08,19.30
2012,08,18,17,09,19.40
2012,08,18,17,10,19.40
2012,08,18,17,11,19.40
2012,08,18,17,12,19.40
2012,08,18,17,13,19.50
2012,08,18,17,14,19.50
2012,08,18,17,15,19.50
2012,08,18,17,16,19.60
2012,08,18,17,17,19.60
2012,08,18,17,18,19.60
2012,08,18,17,19,19.70